Location: SE Lincoln, NE
(40.7805°N, 96.6275°W)
Time: 07:30:37
(UTC-05:00)

Cosmos 1271 Rocket - Pass Details

Date: 15 May 2021
Orbit: 497 x 545 km, 81.2° (Epoch: 20 June)

Event Time Altitude Azimuth Distance (km) Brightness Sun altitude
Exits shadow 22:18:31 22° 181° (S) 1,212 4.2 -16.4°
Maximum altitude 22:20:59 76° 99° (E) 566 2.7 -16.7°
Drops below altitude 10° 22:25:00 10° 13° (NNE) 1,821 5.9 -17.2°
Sets 22:27:11 0° 11° (NNE) 2,716 6.9 -17.5°
